ATLAS 5 CENTAUR DEB, 44849

Orbit data source: Space-Track

ATLAS 5 CENTAUR DEB, 44849 is space debris in HEO originally from a launch on Wed, 17 Sep 2014 UTC launched from the Air Force Eastern Test Range (AFETR). Debris objects in space refer to the collection of defunct objects orbiting the Earth. Examples of debris include non-operational satellites, rocket bodies, and fragments generated from explosions, collisions, or faulty payload assembly.

Loading next visibility...
Identifier
44849, 2014-055CH
Orbit
HEO
Country
Flag of USUS
Related business
Flag of USUnited Launch Alliance/Lockheed Martin (US)
Manufacturer
Unknown
Mission
Spacecraft
Bus & Motor
Unknown
Mass
Unknown
Launch date (UTC)
2014-09-17 (12 years ago)
Launch vehicle
Unknown
Launch site
Air Force Eastern Test Range (AFETR)
Object type
Payload
Rocket body
Debris
Shape & HBR
Unknown shape, 1.1 m
Radar Cross Section
RCS unknown

Expand to show TLE details & history
Last TLE update: 1 week ago

TLE from 1 week ago
0 ATLAS 5 CENTAUR DEB
1 44849U 14055CH  26113.12327390  .00000016  00000-0  00000-0 0  9991
2 44849  21.1940  92.8130 5037394 256.5807  44.6656  1.95523114 47929
Epoch: 2026-04-23T02:57Z
TLE epoch observation values (Epoch: 2026-04-23T02:57:30.864Z)
Latitude
-0.00006°
Longitude
-162.78594°
Altitude
16,425.934 km
Speed
4.495 km/s
True Right ascension
06h 11m 04s
True Declination
0° 00' 00"
Sunlit
Object was in daylight at epoch
Visualization orbit readout
Latitude
Unknown
Longitude
Unknown
Altitude
Unknown
Speed
Unknown
Apparent Right ascension
Unknown
Apparent Declination
Unknown
Sunlit
N/A
Visualization observer readout
Local Sidereal Time
09:32:30
Azimuth
Unknown
Elevation
Unknown
Doppler factor
Unknown
Orbital elements
Apogee altitude
34,248.291 km
Perigee altitude
7,029.303 km
Semi-major axis
27,016.934 km
Eccentricity
0.50374
Inclination
21.194°
RAAN
92.813°
Arg. of periapsis
256.5807°
True anomaly
103.47301°
Mean anomaly
44.6656°
Eccentric anomaly
72.13626°
Mean motion
0.48875 °/min
Orbital period
736.57 mins
BSTAR
0
Loading maneuver chart data...
Computing Atmospheric mass density...

Documentation

Showing up to 5 results
|